Regional Weather Roundup
Issued by NWS

Home | Current Version | Previous Version | Text Only | Print | Product List | Glossary Off
Versions: 1 2 3 4 5 6 7 8 9 10 11 12 13 14 15 16 17 18 19 20 21 22 23 24 25 26 27

000
ASUS45 KSLC 241510
RWRUT

UTAH REGIONAL WEATHER ROUNDUP
NATIONAL WEATHER SERVICE SALT LAKE CITY UT
900 AM MDT TUE MAY 24 2016

UTZ001>011-023>025-241600-

NORTHERN UTAH

CITY           SKY/WX    TMP DP  RH WIND       PRES   REMARKS
DUGWAY         MOSUNNY   58  41  52 W6        29.84
HILL AFB       PTSUNNY   55  36  48 E8        29.83R
LOGAN          MOSUNNY   50  44  80 N8        29.85R
OGDEN          PTSUNNY   58  37  45 NE5       29.81R
PROVO AIRPORT  PTSUNNY   55  36  47 VRB5      29.84R
SALT LAKE CITY PTSUNNY   62  38  40 SE10      29.80S
VERNAL         SUNNY     55  37  50 S3        29.88S
WENDOVER       CLOUDY    55  39  54 NW16      29.85R
HEBER CITY     CLOUDY    52  32  46 CALM      29.87S
WEST JORDAN    PTSUNNY   61  37  41 S8        29.82F

$$

UTZ012>022-026-027-241600-

SOUTHERN/CENTRAL UTAH

CITY           SKY/WX    TMP DP  RH WIND       PRES   REMARKS
BLANDING       SUNNY     58  23  25 S9        30.04S
BRYCE CANYON   SUNNY     50  21  32 SE14      29.97S
CEDAR CITY     SUNNY     59  21  23 S16       29.87S
DELTA          MOSUNNY   59  27  29 S7        29.84S
HANKSVILLE     MOSUNNY   66  19  16 CALM      29.87S
MILFORD        MOSUNNY   60  24  25 SW14      29.86R
MOAB/CYNLANDS  CLOUDY    64  21  19 S10       29.85R
PRICE          MOSUNNY   56  22  26 E9        29.88R
ST GEORGE      MOSUNNY   68  25  19 SE8       29.83S
KANAB          SUNNY     59  25  27 CALM      29.94

$$

REGIONAL REPORTS     COLORADO/ARIZONA

CITY           SKY/WX    TMP DP  RH WIND       PRES   REMARKS
CRAIG, CO      SUNNY     50  36  58 CALM      29.93F
GRAND JUNCTION MOSUNNY   58  25  28 SE10      29.89R
RIFLE          SUNNY     55  28  35 VRB3      29.92S
MONTROSE       SUNNY     64  19  17 E7        29.96F
CORTEZ         SUNNY     61  22  22 SW6       30.00S
PAGE, AZ       MOSUNNY   66  25  21 SW5       29.87R
GRAND CANYON   SUNNY     54  22  28 SW13G22   30.00R
KINGMAN        SUNNY     65  36  34 SW15      29.87R
FLAGSTAFF      SUNNY     49  24  37 SW17G23   30.02R

$$

REGIONAL REPORTS    NEVADA/IDAHO/WYOMING

CITY           SKY/WX    TMP DP  RH WIND       PRES   REMARKS
LAS VEGAS, NV  MOSUNNY   66  36  32 SW15G23   29.76R
ELY            MOSUNNY   46  37  71 CALM      29.89R
ELKO           CLOUDY    47  41  80 CALM      29.86R
POCATELLO, ID  MOSUNNY   48  39  71 CALM      29.87S
BURLEY         PTSUNNY   50  42  74 CALM      29.85S
EVANSTON, WY   CLOUDY    43  33  68 W5        29.94R
ROCK SPRINGS   CLOUDY    50  35  56 NE3       29.94S
KEMMERER         N/A     45  34  65 NW3       29.96R

$$




USA.gov is the U.S. government's official web portal to all federal, state and local government web resources and services.